Temperature
24 24 24 24 24 23 22 22 22 21 21 21 20 20 20 20 20 19 19 19 19 19 19 19 19 18 18 18 18 18 18 18 18 18 18 18 18 18 18 18 18 18 18
24 24 24 24 23 23 23 22 22 21 21 21 21 20 20 20 19 19 19 19 19 19 19 19 19 18 18 18 18 18 18 18 18 18 18 18 18 18 18 18 18 18 18
24 24 24 24 23 23 23 22 22 22 21 21 21 20 20 20 19 19 19 19 19 19 19 19 18 18 18 18 18 18 18 18 18 18 18 18 18 18 18 18 18 18 18
24 24 24 23 23 23 23 22 22 22 21 21 21 20 20 20 20 19 19 19 18 18 18 18 18 18 18 18 18 18 18 18 18 18 18 17 17 17 17 17 17 17 18
24 24 24 23 23 23 23 22 22 22 21 21 21 20 20 20 19 19 19 19 18 18 18 18 18 18 18 18 18 18 18 17 17 17 17 17 17 17 17 17 17 17 17
24 24 24 23 23 23 22 22 22 22 21 21 21 20 20 20 19 19 19 19 18 18 18 18 18 18 18 18 18 17 17 17 17 17 17 17 17 17 17 17 17 17 17
24 24 23 23 23 23 22 22 22 21 21 21 20 20 20 19 19 19 19 19 18 18 18 18 18 18 18 17 17 17 17 17 17 17 17 17 16 16 16 16 16 16 16
24 24 23 23 23 23 23 22 22 21 21 21 20 20 20 19 19 19 19 18 18 18 18 18 18 18 17 17 17 17 17 17 17 16 16 16 16 16 16 16 16 16 16
24 24 23 23 23 23 23 22 22 21 21 21 20 20 20 19 19 19 18 18 18 18 18 18 18 17 17 17 17 17 17 17 16 16 16 16 16 16 16 16 16 15 15
24 24 23 23 23 23 22 22 22 22 21 21 20 20 19 19 19 18 18 18 18 18 18 17 17 17 17 17 17 17 16 16 16 16 16 16 16 15 15 15 15 15 15
24 23 23 23 22 22 22 22 21 21 21 20 20 19 19 19 18 18 18 18 18 18 17 17 17 17 16 16 16 16 16 16 16 16 15 15 15 15 15 15 15 15 15
24 24 23 23 22 22 22 22 21 21 20 20 20 19 19 19 18 18 18 17 17 17 17 17 17 16 16 16 16 16 16 16 15 15 15 15 15 15 15 15 15 15 15
23 23 23 23 22 22 22 21 21 21 20 20 19 19 19 18 18 18 17 17 17 17 17 17 16 16 16 16 16 16 15 15 15 15 15 15 15 15 15 14 14 14 14
23 23 22 22 22 22 21 21 21 20 20 19 19 19 18 18 18 17 17 17 17 17 17 16 16 16 16 15 15 15 15 15 15 15 15 14 14 14 14 14 14 14 14
22 22 22 21 21 21 21 21 20 20 20 19 19 19 18 18 17 17 17 17 17 17 16 16 16 16 15 15 15 15 15 14 14 14 14 14 14 14 14 14 14 14 14
21 21 21 21 21 21 21 20 20 20 20 19 19 18 18 17 17 17 17 17 17 16 16 16 16 16 15 15 15 15 15 14 14 14 14 14 14 14 14 14 13 13 13
21 21 20 21 21 21 21 20 20 19 19 19 18 18 17 17 17 17 17 17 16 16 16 16 16 15 15 15 15 15 14 14 14 14 14 14 13 13 13 13 13 13 13
20 20 20 20 20 20 20 20 19 19 18 18 18 17 17 17 17 16 16 16 16 16 15 15 15 15 15 15 14 14 14 14 14 13 13 13 13 13 13 13 13 13 13
20 20 20 20 20 19 19 19 19 18 18 18 17 17 17 17 16 16 16 16 16 15 15 15 15 15 15 14 14 14 14 13 13 13 13 13 13 13 13 12 12 12 12
20 19 19 19 19 19 19 19 18 18 18 18 17 17 17 16 16 16 16 15 15 15 15 14 14 14 14 14 14 13 13 13 13 13 13 12 12 12 12 12 12 12 12
19 19 19 18 18 18 18 18 18 18 17 17 17 17 16 16 16 16 15 15 15 15 14 14 14 14 14 13 13 13 13 13 12 12 12 12 12 12 12 12 12 12 12
19 18 18 18 18 18 17 17 17 17 17 17 17 16 16 16 15 15 15 15 15 14 14 14 14 13 13 13 13 13 12 12 12 12 12 12 12 12 12 12 12 12 12
18 18 18 17 17 17 17 17 17 17 16 16 16 16 16 15 15 15 15 15 14 14 14 13 13 13 13 13 13 12 12 12 12 12 12 12 11 11 11 11 11 11 11
17 17 17 17 16 16 16 16 16 16 16 16 16 15 15 15 15 14 14 14 14 14 13 13 13 13 13 12 12 12 12 12 12 11 11 11 11 11 11 11 11 11 11
17 17 16 16 16 16 16 15 15 15 15 15 15 15 15 14 14 14 14 14 14 13 13 13 13 13 13 12 12 12 12 12 11 11 11 11 11 11 11 11 11 11 11
16 16 16 15 15 15 15 15 15 15 15 15 14 14 14 14 14 14 14 13 13 13 13 13 12 12 12 12 12 12 11 11 11 11 11 11 11 11 10 10 10 10 10
Wind_Speed
8 9 10 11 10 9 8 8 8 7 6 4 4 3 2 2 2 2 3 3 3 4 3 2 2 2 3 2 2 2 2 1 1 2 2 2 1 1 2 2 2 3 5
7 9 9 10 10 10 9 8 8 8 7 5 4 3 3 2 2 1 2 3 3 3 4 3 2 2 2 2 2 2 2 1 2 2 2 2 3 2 1 1 2 3 2
10 9 10 10 10 10 10 9 9 8 7 6 4 4 3 2 1 1 1 1 2 3 3 3 3 2 2 1 1 1 2 1 1 1 2 2 2 2 2 1 1 1 1
9 9 9 10 11 10 9 8 9 8 7 7 6 6 5 3 3 3 3 2 2 3 3 3 3 2 2 1 1 1 1 2 1 1 1 1 2 1 1 3 2 1 1
11 10 10 11 10 9 8 8 8 8 7 8 8 7 5 3 2 3 3 2 2 2 3 3 3 2 2 1 1 2 2 2 1 1 1 1 1 1 1 1 3 2 1
9 9 9 8 8 7 7 7 7 7 7 8 7 8 7 6 5 4 3 2 1 1 1 2 2 2 2 1 1 1 2 2 2 1 1 1 1 1 1 2 2 2 3
8 8 8 8 8 8 8 8 8 7 7 8 7 7 7 7 7 6 5 3 2 1 1 2 2 2 2 2 1 2 1 1 1 1 0 0 1 1 1 1 1 2 3
8 9 9 10 9 10 9 9 8 7 7 8 7 6 7 6 5 5 5 4 3 3 2 2 2 2 2 2 1 1 1 1 1 1 1 0 1 1 2 2 2 1 2
7 7 8 7 7 8 8 9 9 8 8 8 7 6 6 6 6 5 5 4 3 3 3 2 2 1 2 1 2 1 0 0 0 0 0 0 1 1 1 1 2 3 2
7 6 7 7 7 7 7 7 8 9 8 8 7 7 6 6 6 6 5 5 4 3 3 3 2 2 1 1 1 1 0 0 1 1 0 1 1 1 1 1 1 2 3
8 9 8 7 7 6 7 7 7 7 7 7 7 6 5 5 5 5 5 5 4 4 4 4 3 2 2 1 1 1 1 0 1 1 1 2 1 1 1 1 0 1 2
7 7 8 7 6 6 6 7 7 7 7 7 7 6 6 5 5 4 4 4 4 4 4 4 4 3 2 2 2 2 1 1 1 2 1 2 1 1 1 1 1 1 2
5 5 6 6 6 6 6 6 7 7 6 6 7 6 6 6 5 5 4 4 4 3 3 3 3 3 3 3 2 2 2 2 2 2 2 2 1 2 2 2 2 2 2
5 5 5 5 5 6 6 7 6 7 7 7 7 6 6 6 6 5 4 4 4 3 3 3 3 3 3 3 2 2 2 1 1 1 1 2 2 2 2 2 2 2 1
5 5 5 4 4 5 5 5 6 6 7 7 6 6 5 5 5 4 4 4 4 4 3 3 2 2 3 3 3 3 3 2 1 1 1 2 2 2 2 1 2 2 2
5 4 4 5 4 5 5 5 5 6 7 7 6 5 4 4 5 5 4 4 3 3 3 3 3 3 3 3 4 4 3 3 2 2 2 3 2 3 3 3 3 3 3
5 4 3 3 3 3 4 5 5 5 6 6 5 5 5 5 4 5 4 4 4 4 4 4 3 3 4 4 4 4 4 3 3 3 2 2 2 2 2 3 3 3 3
4 3 3 3 2 2 3 4 4 5 5 5 4 4 5 5 4 4 4 4 3 4 4 4 4 3 3 3 3 3 2 2 3 3 3 3 3 2 1 2 2 3 3
5 4 3 3 3 3 3 5 5 4 4 4 4 5 5 5 5 4 5 4 3 3 3 3 3 3 3 3 3 2 2 2 2 3 3 3 3 3 1 1 2 3 4
5 4 3 3 4 2 4 5 4 4 3 3 4 4 5 5 5 5 4 3 3 3 2 2 2 3 3 2 3 3 2 2 2 2 3 3 3 3 2 2 2 3 5
5 4 4 3 2 3 4 4 3 2 2 2 1 2 3 4 5 4 3 3 3 3 2 2 2 3 3 3 3 3 2 3 2 2 3 4 5 5 5 4 5 7 6
4 4 3 2 1 3 4 3 2 2 1 1 1 2 2 3 3 3 2 3 3 3 3 3 2 2 3 3 3 4 4 3 3 4 4 5 7 6 6 5 6 6 4
3 2 3 2 1 2 4 3 2 1 1 1 0 1 2 2 2 3 3 3 3 3 3 3 3 3 3 3 5 5 5 5 3 4 6 6 6 5 4 5 5 3 1
2 2 3 2 1 0 1 2 1 1 2 1 1 1 1 1 1 2 3 3 4 4 3 4 4 3 3 3 3 3 3 4 3 3 4 5 5 3 3 3 2 2 2
2 3 2 1 1 1 0 1 1 2 2 1 1 1 1 2 2 1 2 3 4 5 5 5 5 4 4 6 6 4 3 3 3 1 1 1 2 2 2 2 2 2 1
1 2 1 1 2 1 1 1 1 2 2 1 1 1 1 1 2 1 1 3 3 4 6 6 5 5 6 6 5 5 5 4 4 3 1 2 2 2 3 3 3 2 2
Wind_Direction
182 173 167 161 159 157 157 159 156 162 154 149 147 137 140 148 147 156 153 145 140 129 111 93 68 78 91 87 71 75 57 30 59 67 29 4 334 203 218 208 204 209 207
174 171 168 166 166 165 164 165 166 166 164 167 161 151 144 146 151 156 137 143 133 132 123 114 107 97 88 66 56 68 68 16 50 103 88 12 350 336 276 209 204 210 205
180 176 172 171 171 172 174 175 173 168 167 156 137 127 103 89 99 122 146 147 142 128 114 117 112 113 107 97 56 71 101 82 6 73 127 135 233 309 335 319 256 209 202
179 176 175 173 176 182 180 174 171 167 166 156 153 154 155 165 184 168 157 151 150 141 132 122 118 119 113 106 65 87 99 102 34 346 35 155 164 158 323 334 324 292 239
177 174 178 179 180 181 177 175 167 167 165 161 162 161 161 165 150 135 139 150 155 143 141 127 115 115 117 107 74 64 75 95 105 60 12 32 39 95 153 287 316 333 303
174 176 179 168 173 177 173 170 164 171 170 166 166 164 164 159 148 149 157 164 152 138 143 125 123 124 127 130 121 93 83 79 77 70 74 112 128 188 165 218 271 294 295
169 178 177 171 174 176 179 178 173 175 174 168 171 168 165 161 164 167 168 164 160 165 182 153 144 149 147 139 121 92 80 78 73 75 82 113 206 180 164 175 251 279 292
179 181 183 180 179 179 177 178 173 173 174 169 168 163 158 160 164 164 163 168 175 180 174 154 153 161 154 147 130 112 122 90 79 51 63 6 303 176 174 182 183 280 308
171 177 178 173 175 176 177 173 166 168 173 167 156 152 159 158 159 161 158 168 175 173 165 155 140 132 144 149 139 137 223 84 109 273 359 312 315 327 264 189 179 183 243
159 166 171 173 180 174 168 167 166 172 169 165 167 166 166 165 163 161 166 173 178 175 168 164 157 149 137 147 151 151 193 132 286 261 29 317 306 330 327 264 219 182 194
168 171 173 180 178 166 160 160 162 160 162 167 166 165 166 168 164 169 176 179 179 175 174 175 171 169 181 181 165 179 152 145 304 302 278 279 284 319 311 299 240 196 178
167 165 163 166 168 166 166 165 163 163 168 165 161 169 162 159 162 177 182 175 178 181 179 176 176 185 191 199 196 209 196 191 245 272 274 277 294 320 309 292 261 242 210
145 138 141 152 157 158 159 163 165 164 160 156 162 167 167 166 171 179 188 176 173 178 179 175 184 195 196 196 197 189 194 206 226 246 258 278 263 279 270 247 245 248 252
125 121 124 138 150 155 161 167 165 159 156 158 161 170 178 178 180 178 183 184 177 174 181 185 186 192 189 181 185 182 184 191 225 239 236 247 236 250 258 243 223 221 234
122 129 130 133 147 158 163 159 158 159 158 158 163 175 179 176 175 175 177 186 183 177 176 176 178 183 189 194 187 189 182 175 216 274 267 258 268 288 269 251 222 206 212
127 135 135 134 142 154 159 153 157 164 160 162 174 176 170 170 178 183 180 183 187 186 181 189 195 200 212 201 194 182 185 190 202 238 272 278 292 312 313 280 233 207 207
136 145 149 147 148 148 147 160 163 151 151 161 168 168 170 175 185 189 185 192 198 196 201 206 198 212 226 202 187 186 183 197 215 232 251 273 298 314 307 300 289 273 244
136 137 126 110 94 104 115 120 122 131 140 148 162 173 178 187 190 187 195 207 202 201 207 208 207 208 224 208 192 184 193 212 229 234 229 234 260 281 314 322 324 304 281
130 132 134 125 108 102 104 108 114 124 136 160 182 192 190 191 192 197 204 210 199 204 210 206 198 192 220 206 186 165 185 220 252 249 240 236 243 273 318 353 307 309 301
114 117 116 107 110 117 113 110 117 129 156 188 200 201 196 194 200 203 204 203 191 199 193 206 202 191 211 204 183 176 184 217 257 271 262 259 252 259 258 224 237 263 272
108 107 106 116 147 141 124 125 130 169 213 213 198 208 207 203 203 197 191 180 175 170 177 193 209 204 209 210 197 183 183 205 234 255 273 274 270 266 266 250 230 236 245
92 101 105 110 154 137 130 136 192 236 222 182 206 223 217 209 195 179 179 176 174 177 195 200 219 234 226 219 217 206 207 207 212 242 257 270 276 271 269 256 253 255 249
110 104 119 112 78 137 144 165 230 237 145 112 222 227 214 204 189 183 184 184 181 184 204 204 216 238 241 237 230 222 225 229 225 241 256 274 286 285 278 276 279 273 217
118 105 104 108 102 158 144 186 214 156 125 137 276 242 201 209 206 198 189 188 194 199 209 211 219 233 241 239 237 239 240 242 248 263 276 285 292 299 290 300 296 253 215
148 129 131 164 214 212 186 199 198 150 142 184 232 225 205 200 199 218 218 212 214 205 204 214 208 209 232 240 227 216 223 225 227 231 314 328 316 308 299 294 288 269 245
148 136 154 202 227 217 264 265 213 168 168 203 246 239 215 213 200 198 310 304 257 229 217 214 208 223 228 227 229 236 236 226 192 157 214 249 258 254 249 259 271 263 246
Height
1512 1514 1516 1517 1519 1520 1522 1523 1524 1525 1526 1527 1528 1529 1529 1530 1530 1530 1531 1531 1530 1530 1530 1530 1529 1529 1529 1528 1527 1527 1526 1526 1527 1527 1527 1527 1527 1528 1528 1528 1528 1528 1529
1510 1512 1514 1516 1517 1519 1520 1522 1523 1524 1525 1526 1527 1528 1529 1529 1530 1530 1530 1530 1530 1530 1530 1529 1529 1529 1529 1528 1527 1527 1526 1526 1526 1527 1526 1527 1528 1527 1527 1527 1527 1527 1528
1507 1510 1511 1514 1515 1517 1518 1519 1521 1522 1524 1525 1527 1528 1529 1529 1529 1529 1529 1529 1529 1529 1529 1529 1529 1528 1528 1528 1527 1527 1526 1526 1526 1526 1526 1526 1526 1526 1526 1526 1526 1526 1526
1505 1507 1508 1510 1513 1515 1516 1518 1519 1521 1522 1524 1525 1526 1526 1527 1528 1528 1528 1529 1529 1529 1529 1529 1528 1528 1528 1527 1527 1527 1526 1526 1526 1526 1526 1526 1526 1525 1525 1525 1525 1525 1525
1502 1504 1506 1508 1510 1512 1514 1515 1517 1519 1520 1522 1523 1524 1525 1526 1527 1527 1528 1528 1528 1528 1528 1528 1528 1528 1527 1527 1527 1526 1526 1525 1525 1525 1525 1525 1525 1524 1524 1523 1524 1524 1524
1501 1504 1505 1506 1508 1510 1512 1514 1516 1517 1519 1520 1521 1522 1523 1524 1525 1526 1526 1526 1527 1527 1527 1527 1527 1527 1527 1527 1526 1526 1525 1525 1525 1524 1524 1524 1524 1523 1523 1522 1522 1522 1522
1500 1502 1504 1504 1506 1508 1510 1511 1513 1514 1516 1519 1520 1521 1522 1523 1523 1524 1524 1525 1525 1525 1526 1526 1526 1526 1526 1526 1526 1525 1525 1524 1524 1523 1523 1523 1522 1522 1521 1521 1520 1520 1520
1498 1500 1501 1502 1504 1505 1507 1509 1510 1512 1514 1516 1518 1519 1520 1521 1522 1523 1523 1523 1523 1524 1524 1524 1525 1525 1525 1525 1525 1524 1524 1523 1523 1522 1522 1521 1521 1520 1520 1520 1519 1518 1518
1496 1498 1499 1501 1502 1504 1505 1507 1509 1510 1512 1514 1516 1517 1518 1519 1520 1521 1521 1521 1522 1522 1523 1523 1523 1523 1523 1523 1523 1523 1523 1522 1522 1521 1520 1520 1519 1518 1518 1518 1518 1518 1516
1494 1496 1497 1499 1501 1502 1504 1505 1507 1508 1509 1511 1513 1514 1516 1517 1518 1519 1519 1520 1520 1520 1520 1521 1521 1521 1521 1521 1521 1521 1521 1521 1520 1520 1519 1518 1517 1516 1516 1516 1515 1515 1515
1492 1493 1495 1497 1499 1501 1502 1503 1505 1506 1507 1509 1511 1512 1513 1515 1515 1516 1517 1517 1518 1518 1518 1518 1519 1519 1519 1520 1519 1519 1518 1518 1518 1517 1517 1516 1515 1514 1514 1513 1513 1513 1512
1492 1493 1493 1496 1498 1500 1501 1502 1504 1505 1506 1507 1509 1510 1511 1512 1513 1514 1514 1515 1516 1516 1516 1516 1516 1517 1517 1517 1517 1517 1516 1516 1515 1515 1514 1513 1513 1512 1511 1511 1510 1510 1509
1491 1492 1493 1495 1497 1499 1500 1501 1502 1503 1505 1506 1507 1508 1509 1510 1510 1512 1512 1513 1513 1514 1514 1514 1514 1514 1515 1515 1515 1514 1514 1513 1513 1513 1512 1511 1510 1509 1508 1508 1507 1507 1506
1490 1491 1492 1494 1496 1497 1498 1499 1500 1501 1503 1504 1504 1505 1506 1507 1508 1509 1510 1510 1511 1511 1512 1512 1512 1512 1512 1512 1512 1512 1511 1510 1510 1510 1509 1508 1507 1506 1505 1504 1504 1503 1503
1490 1492 1493 1493 1494 1496 1497 1497 1498 1500 1501 1502 1502 1503 1504 1505 1506 1507 1508 1508 1509 1509 1509 1510 1510 1510 1509 1509 1509 1509 1508 1508 1507 1507 1506 1505 1504 1503 1502 1501 1500 1500 1499
1490 1492 1493 1493 1493 1494 1495 1496 1497 1498 1498 1499 1500 1501 1502 1502 1503 1504 1505 1506 1506 1506 1507 1507 1507 1507 1507 1507 1507 1506 1506 1505 1505 1504 1503 1502 1501 1500 1498 1498 1497 1497 1496
1490 1491 1492 1492 1492 1492 1493 1494 1495 1496 1496 1497 1498 1499 1499 1500 1500 1501 1502 1503 1503 1504 1504 1504 1505 1505 1505 1504 1504 1503 1503 1502 1502 1501 1500 1499 1498 1497 1495 1494 1494 1493 1493
1489 1490 1491 1491 1492 1492 1492 1493 1494 1494 1495 1495 1496 1497 1497 1498 1498 1499 1499 1500 1501 1501 1501 1501 1501 1502 1502 1501 1501 1500 1500 1499 1498 1498 1497 1496 1495 1494 1493 1491 1490 1490 1489
1489 1490 1491 1491 1491 1491 1491 1492 1492 1493 1493 1493 1494 1494 1495 1495 1496 1496 1496 1497 1498 1498 1498 1498 1498 1498 1498 1498 1498 1497 1497 1496 1495 1495 1494 1493 1492 1491 1490 1489 1487 1487 1487
1489 1490 1491 1491 1491 1491 1491 1491 1491 1490 1491 1491 1491 1492 1492 1492 1493 1493 1494 1494 1494 1494 1495 1495 1495 1495 1495 1494 1494 1494 1493 1492 1491 1491 1490 1490 1489 1488 1487 1486 1484 1484 1484
1489 1490 1490 1490 1490 1490 1489 1489 1489 1489 1489 1489 1489 1489 1489 1490 1490 1491 1491 1491 1491 1492 1492 1492 1492 1492 1491 1491 1491 1491 1490 1489 1488 1487 1487 1486 1485 1485 1484 1483 1482 1481 1481
1488 1488 1488 1488 1488 1488 1488 1487 1487 1487 1487 1487 1486 1487 1487 1487 1487 1488 1488 1488 1488 1488 1488 1488 1488 1488 1488 1488 1487 1487 1487 1486 1485 1484 1483 1483 1482 1481 1481 1480 1479 1479 1479
1486 1487 1486 1486 1486 1486 1486 1485 1485 1485 1484 1484 1484 1484 1484 1484 1484 1484 1485 1485 1485 1485 1485 1485 1485 1485 1485 1484 1484 1484 1483 1482 1482 1481 1480 1480 1479 1478 1477 1477 1476 1476 1475
1485 1485 1485 1484 1484 1484 1483 1483 1483 1482 1482 1481 1481 1481 1481 1481 1481 1481 1482 1482 1482 1482 1482 1482 1481 1481 1481 1481 1480 1480 1479 1479 1478 1477 1476 1476 1476 1475 1474 1474 1473 1473 1472
1484 1483 1483 1482 1482 1482 1481 1481 1481 1480 1479 1479 1478 1478 1479 1478 1478 1479 1479 1479 1479 1479 1479 1479 1479 1478 1477 1477 1477 1477 1476 1475 1475 1474 1473 1473 1472 1471 1471 1470 1470 1469 1469
1482 1482 1481 1480 1480 1479 1479 1478 1479 1478 1477 1476 1476 1476 1476 1476 1476 1476 1476 1476 1476 1476 1476 1476 1476 1475 1475 1474 1474 1474 1473 1472 1472 1471 1470 1469 1468 1468 1467 1467 1467 1466 1466